Terminal Aerodrome Forecast
Issued by NWS Greer, SC

Home | Current Version | Previous Version | Text Only | Print | Product List | Glossary On
Versions: 1 2 3 4 5 6 7 8 9 10 11 12 13 14 15 16 17 18 19 20 21 22 23 24 25 26 27 28 29 30 31 32 33 34 35 36 37 38 39 40 41 42 43 44 45 46 47 48 49
000
FTUS42 KGSP 291135
TAFCLT
TAF
KCLT 291135Z 2912/3012 17004KT P6SM SCT030 BKN070 OVC250
      TEMPO 2912/2914 6SM BR BKN030
     FM291600 17005KT P6SM VCSH BKN040
     FM292000 14005KT P6SM SCT040
     FM300400 16004KT P6SM FEW160
     FM301000 00000KT P6SM SCT030=

USA.gov is the U.S. government's official web portal to all federal, state and local government web resources and services.